Weather in Zasekovo

Russia / Udmurt Republic     57°51′09″N   52°25′50″E
temp.,
°C
wind,
m/s
gust,
m/s
humid.,
%
clouds,
%
prec.,
mm/h
press.,
hPa
HPBL,
m
8 may, sat
sat801:00+11ssw51174100 0.0 1014382
04:00+9wsw3787100 0.0 1016187
07:00+10nw2285100 0.0 1016254
10:00+9nnw4489100 0.3 1017350
13:00+10n3482100 0.3 1018399
16:00+12nne227099 0.3 1018534
19:00+12ene22745 0.0 101680
22:00+9e22895 0.0 101715
9 may, sun
sun901:00+8se33910 0.0 101646
04:00+8se35920 0.0 101677
07:00+12sse47775 0.0 1016235
10:00+18sse565168 0.0 10151228
13:00+20s57405 0.0 10152080
16:00+21s56385 0.0 10152337
19:00+18sse4853100 0.0 1015213
22:00+13se41164100 0.0 1016196
10 may, mon
mon1001:00+13sse4136598 0.0 1016265
04:00+13s41164100 0.0 1017307
07:00+13ssw3770100 0.0 1019252
10:00+13ese3577100 0.2 1020146
13:00+13nw6686100 0.2 1022414
16:00+10nw4691100 4.2 1024514
19:00+9nw3795100 1.6 1026430
22:00+7n599061 3.0 1027424
11 may, tue
tue1101:00+4n410940 0.0 1029326
04:00+3n311910 0.0 1030266
07:00+7nne48792 0.0 1032323
10:00+11nne35565 0.0 1032990
13:00+14n344542 0.0 10311235
16:00+15nnw34429 0.0 10311290
19:00+14n225639 0.0 103124
22:00+10wnw116028 0.0 103210
12 may, wed
wed1201:00+9wnw116447 0.0 103310
04:00+8wnw1265100 0.0 103310
07:00+11wnw126220 0.0 1033101
10:00+16nw22515 0.0 1032565
13:00+19wnw33485 0.0 1031987
16:00+20nw33488 0.0 10301142
19:00+18nw226357 0.0 103030
22:00+14wnw227255 0.0 103012